N17X KLWM-KLWM

Flight info

Callsign N17X
Flight time 1h 44m
Altitude 2500
Route DCT
Aircraft AS50/L-DGV/C

Departure

Time 2026-04-24 14:19
Airport Lawrence Municipal Airport (KLWM)

Arrival

Time 2026-04-24 16:03
Airport Lawrence Municipal Airport (KLWM)
Time Latitude Longitude Altitude Speed Heading
2026-04-24 14:08 42.71428 -71.12192 151 ft 0 kts 134°
2026-04-24 14:14 42.71415 -71.12186 156 ft 2 kts 148°
2026-04-24 14:14 42.71395 -71.12193 165 ft 8 kts 239°
2026-04-24 14:15 42.71391 -71.12262 170 ft 12 kts 279°
2026-04-24 14:15 42.71443 -71.12329 157 ft 13 kts 328°
2026-04-24 14:15 42.71525 -71.12367 153 ft 14 kts 332°
2026-04-24 14:15 42.71621 -71.12406 154 ft 14 kts 333°
2026-04-24 14:16 42.71725 -71.12448 154 ft 17 kts 332°
2026-04-24 14:16 42.71819 -71.12487 157 ft 12 kts 333°
2026-04-24 14:16 42.71868 -71.12483 155 ft 2 kts 41°
2026-04-24 14:17 42.71869 -71.12457 154 ft 0 kts 111°
2026-04-24 14:17 42.71871 -71.12451 155 ft 1 kts 116°
2026-04-24 14:17 42.71815 -71.12305 161 ft 32 kts 131°
2026-04-24 14:18 42.71634 -71.11936 220 ft 52 kts 121°
2026-04-24 14:18 42.71440 -71.11558 377 ft 45 kts 125°
2026-04-24 14:18 42.71229 -71.11289 523 ft 46 kts 184°
2026-04-24 14:18 42.70905 -71.11451 684 ft 57 kts 230°
2026-04-24 14:19 42.70834 -71.11778 742 ft 60 kts 293°
2026-04-24 14:19 42.70587 -71.12477 913 ft 78 kts 219°
2026-04-24 14:19 42.70080 -71.12851 1014 ft 92 kts 213°
2026-04-24 14:19 42.69397 -71.13032 1047 ft 105 kts 184°
2026-04-24 14:20 42.68642 -71.13059 1047 ft 111 kts 184°
2026-04-24 14:20 42.67841 -71.13046 1037 ft 122 kts 178°
2026-04-24 14:20 42.66935 -71.12968 938 ft 137 kts 179°
2026-04-24 14:20 42.65993 -71.13010 952 ft 132 kts 186°
2026-04-24 14:21 42.65097 -71.13136 1028 ft 131 kts 189°
2026-04-24 14:21 42.64168 -71.13279 1006 ft 136 kts 189°
2026-04-24 14:21 42.63225 -71.13410 1006 ft 137 kts 189°
2026-04-24 14:21 42.62269 -71.13543 1008 ft 141 kts 188°
2026-04-24 14:22 42.61292 -71.13679 1008 ft 142 kts 188°
2026-04-24 14:22 42.60313 -71.13823 1005 ft 141 kts 188°
2026-04-24 14:22 42.58374 -71.14132 1013 ft 142 kts 188°
2026-04-24 14:23 42.57393 -71.14285 1006 ft 142 kts 188°
2026-04-24 14:23 42.56414 -71.14298 1005 ft 142 kts 172°
2026-04-24 14:23 42.55451 -71.14008 995 ft 142 kts 163°
2026-04-24 14:23 42.54507 -71.13653 988 ft 140 kts 165°
2026-04-24 14:24 42.53556 -71.13429 990 ft 139 kts 173°
2026-04-24 14:24 42.52612 -71.13229 990 ft 136 kts 167°
2026-04-24 14:24 42.51698 -71.12890 992 ft 136 kts 162°
2026-04-24 14:24 42.50793 -71.12511 1002 ft 137 kts 162°
2026-04-24 14:25 42.49868 -71.12129 999 ft 140 kts 165°
2026-04-24 14:25 42.48907 -71.11860 1000 ft 141 kts 165°
2026-04-24 14:25 42.47974 -71.11411 998 ft 142 kts 156°
2026-04-24 14:25 42.47082 -71.10843 983 ft 141 kts 153°
2026-04-24 14:26 42.46200 -71.10378 988 ft 132 kts 165°
2026-04-24 14:26 42.45313 -71.10233 998 ft 128 kts 178°
2026-04-24 14:26 42.44437 -71.10179 954 ft 125 kts 184°
2026-04-24 14:26 42.43596 -71.10227 953 ft 119 kts 186°
2026-04-24 14:27 42.42757 -71.10322 978 ft 121 kts 191°
2026-04-24 14:27 42.41907 -71.10412 975 ft 122 kts 184°
2026-04-24 14:27 42.41073 -71.10191 990 ft 121 kts 159°
2026-04-24 14:27 42.40353 -71.09656 1023 ft 118 kts 143°
2026-04-24 14:28 42.39676 -71.09018 1013 ft 118 kts 143°
2026-04-24 14:28 42.38991 -71.08435 1087 ft 116 kts 148°
2026-04-24 14:28 42.38278 -71.07909 1107 ft 117 kts 153°
2026-04-24 14:28 42.37521 -71.07532 1124 ft 116 kts 168°
2026-04-24 14:29 42.36733 -71.07513 1123 ft 112 kts 196°
2026-04-24 14:29 42.36053 -71.08010 950 ft 112 kts 237°
2026-04-24 14:29 42.35626 -71.08838 898 ft 104 kts 253°
2026-04-24 14:29 42.35306 -71.09648 964 ft 91 kts 256°
2026-04-24 14:30 42.35055 -71.10152 891 ft 101 kts 238°
2026-04-24 14:30 42.34154 -71.10438 894 ft 106 kts 161°
2026-04-24 14:30 42.33680 -71.09795 891 ft 94 kts 98°
2026-04-24 14:30 42.33804 -71.09042 935 ft 79 kts 56°
2026-04-24 14:31 42.34208 -71.08776 922 ft 72 kts 348°
2026-04-24 14:31 42.34671 -71.08822 912 ft 72 kts 24°
2026-04-24 14:31 42.34944 -71.08205 910 ft 81 kts 64°
2026-04-24 14:31 42.35114 -71.07492 874 ft 78 kts 67°
2026-04-24 14:32 42.35266 -71.06809 889 ft 74 kts 62°
2026-04-24 14:32 42.35403 -71.06143 854 ft 73 kts 66°
2026-04-24 14:32 42.35596 -71.05591 778 ft 59 kts 45°
2026-04-24 14:32 42.35843 -71.05194 677 ft 52 kts 18°
2026-04-24 14:33 42.36207 -71.05386 704 ft 63 kts 334°
2026-04-24 14:33 42.36573 -71.05793 679 ft 68 kts 326°
2026-04-24 14:33 42.36824 -71.06309 685 ft 73 kts 287°
2026-04-24 14:33 42.36713 -71.07012 687 ft 75 kts 274°
2026-04-24 14:34 42.36713 -71.07673 745 ft 65 kts 295°
2026-04-24 14:34 42.36956 -71.08153 713 ft 60 kts 332°
2026-04-24 14:34 42.37326 -71.08300 747 ft 56 kts
2026-04-24 14:34 42.37583 -71.07885 744 ft 73 kts 76°
2026-04-24 14:35 42.37235 -71.07306 753 ft 93 kts 154°
2026-04-24 14:35 42.36615 -71.07008 789 ft 91 kts 169°
2026-04-24 14:35 42.35998 -71.07208 787 ft 96 kts 214°
2026-04-24 14:35 42.35420 -71.07656 795 ft 98 kts 218°
2026-04-24 14:36 42.34927 -71.08259 782 ft 94 kts 249°
2026-04-24 14:36 42.34727 -71.09049 796 ft 87 kts 274°
2026-04-24 14:36 42.34715 -71.09846 790 ft 87 kts 288°
2026-04-24 14:36 42.34886 -71.10656 776 ft 91 kts 299°
2026-04-24 14:37 42.35113 -71.11457 828 ft 93 kts 301°
2026-04-24 14:37 42.35330 -71.12290 878 ft 94 kts 298°
2026-04-24 14:37 42.35478 -71.13169 945 ft 99 kts 288°
2026-04-24 14:37 42.35616 -71.14126 971 ft 112 kts 286°
2026-04-24 14:38 42.35797 -71.15191 997 ft 119 kts 287°
2026-04-24 14:38 42.35989 -71.16300 978 ft 123 kts 279°
2026-04-24 14:38 42.35979 -71.17459 981 ft 125 kts 268°
2026-04-24 14:38 42.35817 -71.18623 982 ft 127 kts 263°
2026-04-24 14:39 42.35621 -71.19810 995 ft 133 kts 261°
2026-04-24 14:39 42.35422 -71.21029 1102 ft 127 kts 263°
2026-04-24 14:39 42.35283 -71.22140 1354 ft 114 kts 265°
2026-04-24 14:39 42.35128 -71.23151 1515 ft 108 kts 266°
2026-04-24 14:40 42.35016 -71.24220 1499 ft 122 kts 270°
2026-04-24 14:40 42.34894 -71.25394 1483 ft 129 kts 268°
2026-04-24 14:40 42.34750 -71.26594 1482 ft 130 kts 265°
2026-04-24 14:40 42.34599 -71.27802 1484 ft 130 kts 266°
2026-04-24 14:41 42.34442 -71.29020 1487 ft 133 kts 265°
2026-04-24 14:41 42.34282 -71.30257 1483 ft 134 kts 267°
2026-04-24 14:41 42.34113 -71.31489 1483 ft 133 kts 267°
2026-04-24 14:41 42.33945 -71.32711 1483 ft 131 kts 267°
2026-04-24 14:42 42.33837 -71.33515 1489 ft 133 kts 266°
2026-04-24 14:42 42.33621 -71.35184 1483 ft 136 kts 265°
2026-04-24 14:42 42.33458 -71.36439 1484 ft 135 kts 267°
2026-04-24 14:42 42.33303 -71.37679 1486 ft 133 kts 265°
2026-04-24 14:43 42.33116 -71.38909 1485 ft 134 kts 259°
2026-04-24 14:43 42.33010 -71.39741 1491 ft 138 kts 266°
2026-04-24 14:43 42.32866 -71.41025 1483 ft 138 kts 265°
2026-04-24 14:43 42.32709 -71.42301 1487 ft 137 kts 268°
2026-04-24 14:44 42.32545 -71.43570 1484 ft 136 kts 267°
2026-04-24 14:44 42.32377 -71.44815 1486 ft 134 kts 264°
2026-04-24 14:44 42.32208 -71.46067 1497 ft 139 kts 266°
2026-04-24 14:44 42.32038 -71.47370 1483 ft 141 kts 266°
2026-04-24 14:45 42.31868 -71.48653 1484 ft 136 kts 265°
2026-04-24 14:45 42.31702 -71.49903 1487 ft 135 kts 265°
2026-04-24 14:45 42.31538 -71.51165 1483 ft 137 kts 264°
2026-04-24 14:45 42.31373 -71.52427 1485 ft 136 kts 265°
2026-04-24 14:46 42.31210 -71.53667 1482 ft 132 kts 266°
2026-04-24 14:46 42.31048 -71.54884 1465 ft 132 kts 266°
2026-04-24 14:46 42.30888 -71.56102 1469 ft 132 kts 267°
2026-04-24 14:46 42.30728 -71.57336 1469 ft 135 kts 268°
2026-04-24 14:47 42.30572 -71.58556 1464 ft 131 kts 263°
2026-04-24 14:47 42.30410 -71.59759 1470 ft 129 kts 265°
2026-04-24 14:47 42.30247 -71.60970 1482 ft 136 kts 264°
2026-04-24 14:47 42.30082 -71.62244 1469 ft 139 kts 267°
2026-04-24 14:48 42.29913 -71.63513 1466 ft 135 kts 266°
2026-04-24 14:48 42.29744 -71.64766 1469 ft 136 kts 267°
2026-04-24 14:48 42.29577 -71.66025 1464 ft 135 kts 266°
2026-04-24 14:48 42.29411 -71.67272 1472 ft 136 kts 266°
2026-04-24 14:49 42.29241 -71.68543 1470 ft 139 kts 264°
2026-04-24 14:49 42.29072 -71.69816 1465 ft 137 kts 263°
2026-04-24 14:49 42.28902 -71.71089 1465 ft 139 kts 266°
2026-04-24 14:49 42.28731 -71.72365 1464 ft 138 kts 267°
2026-04-24 14:50 42.28566 -71.73631 1461 ft 137 kts 264°
2026-04-24 14:50 42.28397 -71.74889 1458 ft 136 kts 266°
2026-04-24 14:50 42.28251 -71.76097 1466 ft 124 kts 266°
2026-04-24 14:50 42.28113 -71.77227 1462 ft 120 kts 266°
2026-04-24 14:51 42.27971 -71.78327 1466 ft 119 kts 266°
2026-04-24 14:51 42.27829 -71.79406 1461 ft 114 kts 266°
2026-04-24 14:51 42.27677 -71.80487 1464 ft 121 kts 265°
2026-04-24 14:51 42.27514 -71.81628 1458 ft 124 kts 265°
2026-04-24 14:52 42.27349 -71.82771 1462 ft 124 kts 265°
2026-04-24 14:52 42.27175 -71.83920 1449 ft 125 kts 263°
2026-04-24 14:52 42.26944 -71.85028 1352 ft 117 kts 259°
2026-04-24 14:52 42.26710 -71.85984 1284 ft 96 kts 264°
2026-04-24 14:53 42.26613 -71.86662 1091 ft 45 kts 296°
2026-04-24 14:53 42.26636 -71.86898 1016 ft 10 kts 289°
2026-04-24 14:53 42.26718 -71.86981 1018 ft 17 kts 316°
2026-04-24 14:53 42.26809 -71.87100 1020 ft 22 kts 311°
2026-04-24 14:54 42.26912 -71.87225 1022 ft 16 kts 322°
2026-04-24 14:54 42.26992 -71.87244 1018 ft 11 kts 357°
2026-04-24 14:54 42.27059 -71.87211 1008 ft 7 kts 359°
2026-04-24 14:54 42.27111 -71.87213 1008 ft 10 kts 359°
2026-04-24 14:55 42.27155 -71.87210 1009 ft 0 kts 351°
2026-04-24 14:55 42.27160 -71.87219 1007 ft 3 kts 178°
2026-04-24 14:55 42.27145 -71.87222 1009 ft 5 kts 12°
2026-04-24 14:55 42.27159 -71.87211 1001 ft 1 kts
2026-04-24 14:56 42.27160 -71.87211 1000 ft 0 kts
2026-04-24 15:03 42.27151 -71.87212 1006 ft 2 kts
2026-04-24 15:03 42.27155 -71.87221 1014 ft 1 kts 357°
2026-04-24 15:03 42.27156 -71.87229 1079 ft 5 kts 357°
2026-04-24 15:04 42.27321 -71.87232 1204 ft 35 kts 359°
2026-04-24 15:04 42.27594 -71.87099 1359 ft 57 kts 40°
2026-04-24 15:04 42.27632 -71.86452 1443 ft 81 kts 86°
2026-04-24 15:04 42.27547 -71.85648 1474 ft 90 kts 90°
2026-04-24 15:05 42.27552 -71.84772 1463 ft 97 kts 78°
2026-04-24 15:05 42.27589 -71.83842 1454 ft 99 kts 82°
2026-04-24 15:05 42.27659 -71.82920 1456 ft 98 kts 72°
2026-04-24 15:05 42.27782 -71.82030 1455 ft 95 kts 73°
2026-04-24 15:06 42.27904 -71.81154 1456 ft 95 kts 72°
2026-04-24 15:06 42.28025 -71.80277 1459 ft 95 kts 76°
2026-04-24 15:06 42.28137 -71.79409 1466 ft 95 kts 73°
2026-04-24 15:06 42.28250 -71.78514 1455 ft 97 kts 76°
2026-04-24 15:07 42.28357 -71.77637 1453 ft 93 kts 75°
2026-04-24 15:07 42.28465 -71.76770 1457 ft 95 kts 75°
2026-04-24 15:07 42.28573 -71.75871 1459 ft 99 kts 75°
2026-04-24 15:07 42.28681 -71.74961 1452 ft 96 kts 76°
2026-04-24 15:08 42.28785 -71.74070 1455 ft 95 kts 74°
2026-04-24 15:08 42.28882 -71.73194 1462 ft 94 kts 76°
2026-04-24 15:08 42.28980 -71.72315 1464 ft 97 kts 72°
2026-04-24 15:08 42.29085 -71.71406 1461 ft 99 kts 75°
2026-04-24 15:09 42.29191 -71.70479 1462 ft 100 kts 76°
2026-04-24 15:09 42.29301 -71.69518 1459 ft 105 kts 76°
2026-04-24 15:09 42.29407 -71.68574 1463 ft 102 kts 72°
2026-04-24 15:09 42.29514 -71.67646 1464 ft 99 kts 72°
2026-04-24 15:10 42.29620 -71.66728 1464 ft 99 kts 72°
2026-04-24 15:10 42.29725 -71.65818 1462 ft 97 kts 72°
2026-04-24 15:10 42.29826 -71.64934 1465 ft 94 kts 75°
2026-04-24 15:10 42.29930 -71.64048 1469 ft 98 kts 74°
2026-04-24 15:11 42.30038 -71.63125 1464 ft 99 kts 73°
2026-04-24 15:11 42.30144 -71.62213 1466 ft 98 kts 72°
2026-04-24 15:11 42.30256 -71.61264 1469 ft 106 kts 73°
2026-04-24 15:11 42.30372 -71.60279 1471 ft 108 kts 73°
2026-04-24 15:12 42.30486 -71.59287 1463 ft 105 kts 74°
2026-04-24 15:12 42.30696 -71.57426 1466 ft 96 kts 75°
2026-04-24 15:12 42.30800 -71.56532 1472 ft 98 kts 71°
2026-04-24 15:13 42.30905 -71.55626 1469 ft 96 kts 72°
2026-04-24 15:13 42.31003 -71.54725 1469 ft 97 kts 73°
2026-04-24 15:13 42.31101 -71.53805 1486 ft 100 kts 73°
2026-04-24 15:13 42.31202 -71.52867 1481 ft 102 kts 74°
2026-04-24 15:14 42.31303 -71.51940 1470 ft 96 kts 74°
2026-04-24 15:14 42.31403 -71.51037 1476 ft 98 kts 71°
2026-04-24 15:14 42.31508 -71.50115 1480 ft 100 kts 73°
2026-04-24 15:14 42.31611 -71.49203 1473 ft 96 kts 72°
2026-04-24 15:15 42.31711 -71.48318 1481 ft 96 kts 75°
2026-04-24 15:15 42.31814 -71.47424 1474 ft 98 kts 71°
2026-04-24 15:15 42.31917 -71.46522 1477 ft 98 kts 74°
2026-04-24 15:15 42.32026 -71.45592 1483 ft 105 kts 72°
2026-04-24 15:16 42.32137 -71.44626 1472 ft 102 kts 75°
2026-04-24 15:16 42.32248 -71.43693 1479 ft 100 kts 72°
2026-04-24 15:16 42.32459 -71.42835 1472 ft 94 kts 50°
2026-04-24 15:16 42.32902 -71.42222 1477 ft 91 kts 36°
2026-04-24 15:17 42.33369 -71.41691 1468 ft 84 kts 32°
2026-04-24 15:17 42.33811 -71.41176 1476 ft 87 kts 37°
2026-04-24 15:17 42.34264 -71.40615 1473 ft 90 kts 38°
2026-04-24 15:17 42.34721 -71.40019 1471 ft 93 kts 39°
2026-04-24 15:18 42.35172 -71.39412 1470 ft 91 kts 39°
2026-04-24 15:18 42.35621 -71.38795 1468 ft 91 kts 38°
2026-04-24 15:18 42.36066 -71.38179 1469 ft 92 kts 40°
2026-04-24 15:18 42.36527 -71.37540 1473 ft 100 kts 42°
2026-04-24 15:19 42.37005 -71.36875 1470 ft 96 kts 39°
2026-04-24 15:19 42.37466 -71.36230 1467 ft 94 kts 40°
2026-04-24 15:19 42.37920 -71.35593 1472 ft 94 kts 39°
2026-04-24 15:19 42.38372 -71.34961 1471 ft 93 kts 42°
2026-04-24 15:20 42.38828 -71.34323 1464 ft 96 kts 40°
2026-04-24 15:20 42.39288 -71.33680 1465 ft 94 kts 41°
2026-04-24 15:20 42.39748 -71.33036 1466 ft 96 kts 39°
2026-04-24 15:20 42.40208 -71.32394 1464 ft 94 kts 42°
2026-04-24 15:21 42.40661 -71.31760 1468 ft 94 kts 42°
2026-04-24 15:21 42.41109 -71.31134 1468 ft 92 kts 39°
2026-04-24 15:21 42.41550 -71.30520 1466 ft 91 kts 40°
2026-04-24 15:21 42.41986 -71.29910 1468 ft 90 kts 39°
2026-04-24 15:22 42.42428 -71.29295 1471 ft 92 kts 38°
2026-04-24 15:22 42.42873 -71.28675 1467 ft 92 kts 42°
2026-04-24 15:22 42.43316 -71.28053 1468 ft 92 kts 38°
2026-04-24 15:23 42.44194 -71.26825 1467 ft 89 kts 38°
2026-04-24 15:23 42.45056 -71.25622 1468 ft 89 kts 43°
2026-04-24 15:23 42.45489 -71.25014 1466 ft 90 kts 40°
2026-04-24 15:24 42.46795 -71.23189 1487 ft 92 kts 42°
2026-04-24 15:25 42.47548 -71.22135 1490 ft 94 kts 40°
2026-04-24 15:25 42.48676 -71.20556 1483 ft 103 kts 41°
2026-04-24 15:26 42.50117 -71.18533 1485 ft 96 kts 41°
2026-04-24 15:27 42.51503 -71.16558 1479 ft 93 kts 41°
2026-04-24 15:27 42.52959 -71.14990 1477 ft 90 kts
2026-04-24 15:28 42.55439 -71.14813 1483 ft 85 kts
2026-04-24 15:29 42.56676 -71.14657 1480 ft 91 kts
2026-04-24 15:30 42.58553 -71.14381 1483 ft 87 kts
2026-04-24 15:31 42.60875 -71.14029 1490 ft 92 kts
2026-04-24 15:32 42.62623 -71.11702 1481 ft 96 kts 55°
2026-04-24 15:33 42.63879 -71.08671 1485 ft 91 kts 54°
2026-04-24 15:33 42.64856 -71.06428 1486 ft 93 kts 52°
2026-04-24 15:34 42.65500 -71.04954 1489 ft 91 kts 55°
2026-04-24 15:35 42.66485 -71.02726 1486 ft 90 kts 52°
2026-04-24 15:35 42.67135 -71.01253 1486 ft 90 kts 53°
2026-04-24 15:35 42.67461 -71.00516 1486 ft 92 kts 52°
2026-04-24 15:36 42.67795 -70.99768 1487 ft 94 kts 52°
2026-04-24 15:36 42.68485 -70.98222 1481 ft 94 kts 53°
2026-04-24 15:36 42.68823 -70.97458 1472 ft 96 kts 53°
2026-04-24 15:37 42.69173 -70.96667 1469 ft 100 kts 52°
2026-04-24 15:37 42.69529 -70.95854 1482 ft 101 kts 51°
2026-04-24 15:37 42.69924 -70.95002 1408 ft 113 kts 50°
2026-04-24 15:37 42.70358 -70.94059 1246 ft 121 kts 53°
2026-04-24 15:38 42.70798 -70.93066 1128 ft 123 kts 56°
2026-04-24 15:38 42.71227 -70.92069 1055 ft 122 kts 56°
2026-04-24 15:38 42.71656 -70.91076 985 ft 122 kts 54°
2026-04-24 15:38 42.72078 -70.90097 988 ft 119 kts 53°
2026-04-24 15:39 42.72491 -70.89145 980 ft 115 kts 55°
2026-04-24 15:39 42.72890 -70.88222 985 ft 114 kts 55°
2026-04-24 15:39 42.73289 -70.87305 980 ft 110 kts 54°
2026-04-24 15:39 42.73677 -70.86416 977 ft 109 kts 57°
2026-04-24 15:40 42.74064 -70.85530 978 ft 110 kts 57°
2026-04-24 15:40 42.74455 -70.84636 976 ft 109 kts 56°
2026-04-24 15:40 42.74846 -70.83742 978 ft 110 kts 54°
2026-04-24 15:40 42.75242 -70.82848 976 ft 110 kts 52°
2026-04-24 15:41 42.75869 -70.82313 975 ft 108 kts 11°
2026-04-24 15:41 42.76633 -70.82368 980 ft 113 kts 351°
2026-04-24 15:41 42.77378 -70.82594 979 ft 106 kts 348°
2026-04-24 15:41 42.78063 -70.82956 976 ft 104 kts 338°
2026-04-24 15:42 42.78707 -70.83401 979 ft 104 kts 336°
2026-04-24 15:42 42.79342 -70.83839 980 ft 100 kts 338°
2026-04-24 15:42 42.80000 -70.84182 978 ft 103 kts 343°
2026-04-24 15:42 42.80676 -70.84477 984 ft 101 kts 346°
2026-04-24 15:43 42.81345 -70.84757 983 ft 101 kts 346°
2026-04-24 15:43 42.82013 -70.85035 981 ft 99 kts 346°
2026-04-24 15:43 42.82644 -70.85305 982 ft 95 kts 345°
2026-04-24 15:43 42.83280 -70.85560 979 ft 95 kts 345°
2026-04-24 15:44 42.83919 -70.85809 988 ft 97 kts 346°
2026-04-24 15:44 42.84583 -70.86066 981 ft 100 kts 346°
2026-04-24 15:44 42.85246 -70.86322 985 ft 99 kts 346°
2026-04-24 15:44 42.85912 -70.86480 981 ft 97 kts
2026-04-24 15:45 42.86427 -70.85896 985 ft 104 kts 62°
2026-04-24 15:45 42.86379 -70.84918 983 ft 109 kts 115°
2026-04-24 15:45 42.85777 -70.84282 982 ft 113 kts 156°
2026-04-24 15:45 42.85018 -70.84003 984 ft 113 kts 172°
2026-04-24 15:46 42.84231 -70.83925 980 ft 113 kts 179°
2026-04-24 15:46 42.83459 -70.83913 982 ft 110 kts 180°
2026-04-24 15:46 42.82688 -70.83926 988 ft 112 kts 182°
2026-04-24 15:46 42.81909 -70.83945 987 ft 114 kts 181°
2026-04-24 15:47 42.81108 -70.83963 986 ft 113 kts 181°
2026-04-24 15:47 42.80325 -70.83978 984 ft 114 kts 181°
2026-04-24 15:47 42.79519 -70.83992 982 ft 118 kts 180°
2026-04-24 15:47 42.78689 -70.84005 968 ft 119 kts 180°
2026-04-24 15:48 42.77862 -70.84017 974 ft 118 kts 180°
2026-04-24 15:48 42.77040 -70.84030 975 ft 118 kts 180°
2026-04-24 15:48 42.76222 -70.84044 971 ft 117 kts 179°
2026-04-24 15:48 42.75417 -70.84058 979 ft 116 kts 179°
2026-04-24 15:49 42.74597 -70.84072 977 ft 119 kts 180°
2026-04-24 15:49 42.73771 -70.84086 979 ft 119 kts 180°
2026-04-24 15:49 42.72950 -70.84100 976 ft 117 kts 180°
2026-04-24 15:49 42.72147 -70.84114 980 ft 116 kts 180°
2026-04-24 15:50 42.71346 -70.84077 963 ft 112 kts 166°
2026-04-24 15:50 42.70730 -70.83468 980 ft 113 kts 123°
2026-04-24 15:50 42.70564 -70.82460 974 ft 108 kts 78°
2026-04-24 15:50 42.70920 -70.81639 967 ft 98 kts 37°
2026-04-24 15:51 42.71528 -70.81385 980 ft 89 kts
2026-04-24 15:51 42.72130 -70.81414 980 ft 85 kts 357°
2026-04-24 15:51 42.72716 -70.81518 981 ft 85 kts 355°
2026-04-24 15:51 42.73302 -70.81641 979 ft 86 kts 355°
2026-04-24 15:52 42.73896 -70.81770 974 ft 86 kts 354°
2026-04-24 15:52 42.74483 -70.81900 976 ft 85 kts 354°
2026-04-24 15:52 42.75064 -70.82030 976 ft 84 kts 354°
2026-04-24 15:52 42.75631 -70.82158 975 ft 84 kts 354°
2026-04-24 15:53 42.76215 -70.82290 978 ft 88 kts 354°
2026-04-24 15:53 42.76825 -70.82429 974 ft 90 kts 353°
2026-04-24 15:53 42.77443 -70.82573 975 ft 89 kts 353°
2026-04-24 15:53 42.78059 -70.82719 976 ft 90 kts 354°
2026-04-24 15:54 42.78663 -70.82862 977 ft 90 kts 354°
2026-04-24 15:54 42.79282 -70.83008 979 ft 90 kts 354°
2026-04-24 15:54 42.79903 -70.83156 978 ft 92 kts 352°
2026-04-24 15:54 42.80535 -70.83307 980 ft 93 kts 352°
2026-04-24 15:55 42.81167 -70.83519 973 ft 94 kts 335°
2026-04-24 15:55 42.81450 -70.84281 983 ft 96 kts 278°
2026-04-24 15:55 42.81305 -70.85182 986 ft 99 kts 257°
2026-04-24 15:55 42.81029 -70.86051 984 ft 100 kts 251°
2026-04-24 15:56 42.80718 -70.86921 986 ft 104 kts 249°
2026-04-24 15:56 42.80398 -70.87813 983 ft 105 kts 250°
2026-04-24 15:56 42.80086 -70.88697 983 ft 103 kts 252°
2026-04-24 15:56 42.79775 -70.89592 986 ft 105 kts 253°
2026-04-24 15:57 42.79473 -70.90455 991 ft 99 kts 252°
2026-04-24 15:57 42.79182 -70.91302 991 ft 101 kts 253°
2026-04-24 15:57 42.78885 -70.92173 996 ft 102 kts 255°
2026-04-24 15:57 42.78586 -70.93039 989 ft 99 kts 250°
2026-04-24 15:58 42.78290 -70.93885 990 ft 98 kts 250°
2026-04-24 15:58 42.77998 -70.94715 994 ft 97 kts 251°
2026-04-24 15:58 42.77707 -70.95542 994 ft 97 kts 253°
2026-04-24 15:58 42.77421 -70.96359 1006 ft 93 kts 250°
2026-04-24 15:59 42.77131 -70.97156 1000 ft 94 kts 250°
2026-04-24 15:59 42.76842 -70.97956 994 ft 94 kts 249°
2026-04-24 15:59 42.76559 -70.98738 1001 ft 92 kts 249°
2026-04-24 15:59 42.76279 -70.99527 994 ft 92 kts 250°
2026-04-24 16:00 42.75997 -71.00320 995 ft 93 kts 251°
2026-04-24 16:00 42.75709 -71.01136 1000 ft 99 kts 253°
2026-04-24 16:00 42.75403 -71.02007 999 ft 105 kts 253°
2026-04-24 16:00 42.75086 -71.02899 975 ft 102 kts 251°
2026-04-24 16:01 42.74776 -71.03753 984 ft 102 kts 253°
2026-04-24 16:01 42.74470 -71.04611 977 ft 98 kts 251°
2026-04-24 16:01 42.74169 -71.05448 979 ft 98 kts 253°
2026-04-24 16:01 42.73874 -71.06281 984 ft 99 kts 250°
2026-04-24 16:02 42.73450 -71.07036 959 ft 106 kts 228°
2026-04-24 16:02 42.72828 -71.07595 872 ft 108 kts 219°
2026-04-24 16:02 42.72194 -71.08145 775 ft 107 kts 223°
2026-04-24 16:02 42.71650 -71.08744 748 ft 97 kts 228°
2026-04-24 16:03 42.71240 -71.09414 660 ft 90 kts 256°
2026-04-24 16:03 42.71223 -71.10225 538 ft 79 kts 283°
2026-04-24 16:03 42.71270 -71.10869 424 ft 61 kts 287°
2026-04-24 16:03 42.71381 -71.11350 321 ft 43 kts 307°
2026-04-24 16:04 42.71503 -71.11654 241 ft 32 kts 307°
2026-04-24 16:04 42.71579 -71.11810 179 ft 7 kts 305°
2026-04-24 16:04 42.71607 -71.11873 167 ft 16 kts 304°
2026-04-24 16:04 42.71657 -71.11985 157 ft 13 kts 281°
2026-04-24 16:05 42.71519 -71.12186 155 ft 17 kts 204°
2026-04-24 16:05 42.71402 -71.12282 162 ft 21 kts 208°
2026-04-24 16:06 42.71301 -71.12367 146 ft 0 kts 129°